SCP
0 0 1 1 1 1 1 1 1 1 0 0 0 0 0 0 0 0 0 0 0 0 0 1 1 1 1 1 1 2 3 4 5 6 5 5 4 3 3 2 2 2 1 1
0 0 0 0 1 1 1 1 1 1 0 0 0 0 0 0 0 0 0 0 0 0 1 2 2 2 2 1 2 2 4 5 6 5 5 4 4 3 3 2 2 2 1 1
0 0 0 0 0 0 1 1 1 1 0 0 0 0 0 0 0 0 0 0 0 1 2 3 3 2 2 2 2 3 4 5 6 5 4 4 3 3 2 2 2 2 2 2
0 0 0 0 0 0 0 0 0 0 0 0 0 0 0 0 0 0 0 0 0 1 2 3 3 3 3 3 3 4 4 5 5 4 3 3 3 3 2 2 2 2 2 1
0 0 0 0 0 0 0 0 0 0 0 0 0 0 0 0 0 0 0 0 0 1 2 2 3 3 3 3 3 3 3 3 3 3 2 3 2 2 2 1 2 2 2 2
0 0 0 0 0 0 0 0 0 0 0 0 0 0 0 0 0 0 0 0 1 1 2 2 3 3 3 3 2 2 2 2 2 2 2 2 2 2 2 2 2 2 2 2
0 0 0 0 0 0 0 0 0 0 0 0 0 0 0 0 0 0 0 1 1 1 2 3 3 4 3 2 2 1 1 1 1 1 1 1 1 1 1 2 2 2 2 1
0 0 0 0 0 0 0 0 0 0 0 0 0 0 0 0 0 0 1 1 1 2 2 3 3 3 2 2 1 1 1 1 1 1 1 1 1 1 1 2 2 1 1 1
0 0 0 0 0 0 0 0 0 0 0 0 0 0 0 0 0 0 1 1 1 1 2 2 2 2 1 1 1 1 1 1 1 1 1 1 1 1 1 1 1 1 1 1
0 0 0 0 0 0 0 0 0 0 0 0 0 0 0 0 0 0 0 1 1 1 1 1 1 1 1 1 2 2 2 2 1 1 1 1 1 1 1 1 1 1 1 1
0 0 0 0 0 0 0 0 0 0 0 0 0 0 0 0 0 0 0 0 1 1 1 1 1 1 1 2 2 2 2 2 2 1 1 1 1 1 1 1 1 1 1 1
0 0 0 0 0 0 0 0 0 0 0 0 0 0 0 0 0 0 0 0 0 0 0 0 1 1 1 2 2 2 3 2 2 2 2 1 1 1 1 1 1 1 1 1
0 0 0 0 0 0 0 0 0 0 0 0 0 0 0 0 0 0 0 0 0 0 0 0 1 1 1 2 2 3 3 3 3 2 2 2 1 1 1 1 1 1 1 1
0 0 0 0 0 0 0 0 0 0 0 0 0 0 0 0 0 0 0 0 0 0 0 1 1 1 1 2 2 2 3 3 3 3 2 2 2 2 2 2 1 1 1 1
0 0 0 0 0 0 0 0 0 0 0 0 0 0 0 0 0 0 0 1 1 1 1 1 1 1 1 1 2 2 3 3 3 3 2 2 2 2 2 2 2 1 1 1
0 0 0 0 0 0 0 0 0 0 0 0 0 0 0 0 0 0 0 1 1 1 2 2 1 1 1 2 2 3 3 4 3 3 3 3 3 3 3 2 2 2 1 1
0 0 0 0 0 0 0 0 0 0 0 0 0 0 0 0 0 0 0 1 1 1 2 2 2 2 2 2 3 3 3 4 4 4 4 4 4 4 3 3 2 2 2 2
0 0 0 0 0 0 0 0 0 0 0 0 0 0 0 0 0 0 0 0 1 1 2 2 2 2 2 2 3 3 3 3 3 3 3 3 3 3 3 2 2 2 2 2
0 0 0 0 0 0 0 0 0 0 0 0 0 0 0 0 0 0 0 0 0 1 1 1 1 1 1 2 2 2 2 2 2 2 3 3 3 3 2 2 2 2 2 1
0 0 0 0 0 0 0 0 0 0 0 0 0 0 0 0 0 0 0 0 0 0 0 1 1 1 1 1 1 1 1 1 1 2 2 2 2 2 2 1 1 1 1 1
0 0 0 0 0 0 0 0 0 0 0 0 0 0 0 0 0 0 0 0 0 0 0 0 0 0 0 0 0 0 0 0 1 1 1 1 1 1 1 1 1 1 1 1
0 0 0 0 0 0 0 0 0 0 0 0 0 0 0 0 0 0 0 0 0 0 0 0 0 0 0 0 0 0 0 0 0 0 0 1 1 1 1 1 1 1 1 1
0 0 0 0 0 0 0 0 0 0 0 0 0 0 0 0 0 0 0 0 0 0 0 0 0 0 0 0 0 0 0 0 0 0 0 0 0 0 0 0 0 0 0 1
0 0 0 0 0 0 0 0 0 0 0 0 0 0 0 0 0 0 0 0 0 0 0 0 0 0 0 0 0 0 0 0 0 0 0 0 0 0 0 0 0 0 0 0
0 0 0 0 0 0 0 0 0 0 0 0 0 0 0 0 0 0 0 0 0 0 0 0 0 0 0 0 0 0 0 0 0 0 0 0 0 0 0 0 0 0 0 0
0 0 0 0 0 0 0 0 0 0 0 0 0 0 0 0 0 0 0 0 0 0 0 0 0 0 0 0 0 0 0 0 0 0 0 0 0 0 0 0 0 0 0 0
Wind_Speed
4 7 6 4 4 7 10 12 12 6 7 8 9 12 11 9 6 6 7 9 10 9 11 10 8 7 5 3 3 4 5 6 6 5 5 4 3 3 3 3 4 5 4 5
5 5 4 5 5 7 9 11 11 8 10 9 11 15 14 12 10 9 10 11 10 7 7 9 9 8 6 5 3 3 4 4 5 4 4 4 4 3 4 4 4 5 5 5
7 4 1 4 7 8 8 7 7 9 11 9 11 14 15 14 13 12 11 9 7 4 5 12 11 9 7 6 5 3 4 6 5 5 3 3 3 2 3 4 4 5 6 6
7 4 4 7 9 8 9 5 4 5 4 5 5 9 12 14 13 11 9 6 5 3 4 11 11 10 8 8 6 5 5 6 5 5 3 4 4 4 5 4 5 5 6 6
9 5 6 9 9 7 6 3 5 5 5 7 7 8 10 11 9 8 6 4 3 4 6 11 11 10 10 9 6 6 7 6 5 4 4 4 4 4 3 4 6 6 5 6
13 11 9 9 7 6 4 5 7 6 5 9 11 10 7 4 4 4 5 2 2 5 7 11 11 10 10 8 6 6 6 6 4 4 5 6 5 4 3 2 3 3 3 3
14 12 9 7 7 7 8 7 5 5 5 6 4 5 6 5 2 2 3 1 4 6 9 11 12 10 9 8 6 6 7 6 4 4 6 6 5 3 3 3 3 3 2 3
14 11 6 2 7 9 9 11 8 6 5 3 2 6 4 4 3 2 2 5 5 7 9 11 11 9 8 8 7 7 7 6 5 3 3 2 6 2 0 2 2 2 2 2
12 13 15 13 12 13 13 12 13 11 12 11 7 8 3 2 3 2 5 7 6 8 9 10 11 10 9 8 7 7 7 6 6 4 2 1 2 3 1 2 2 2 2 2
13 18 15 17 16 14 13 13 7 3 5 7 7 2 6 12 15 15 9 4 4 5 8 9 10 10 9 9 8 7 7 7 6 5 4 3 1 2 1 0 2 2 3 4
15 12 14 15 14 13 9 8 9 6 7 5 3 3 5 9 14 16 16 12 8 6 5 1 5 8 9 10 9 7 7 7 6 6 5 5 4 3 3 2 3 3 3 4
10 9 12 16 9 12 9 8 8 5 7 6 2 3 7 8 8 11 15 14 9 5 2 3 3 5 6 9 10 10 8 8 7 6 5 6 5 4 3 3 4 4 4 5
10 9 12 11 7 12 9 10 12 8 2 2 2 2 10 11 12 12 12 13 10 8 6 4 2 3 4 5 7 9 9 9 8 7 5 5 5 5 5 4 4 4 5 5
6 9 10 11 11 7 8 12 16 10 3 3 3 6 12 15 15 14 13 12 10 7 7 5 2 1 3 3 5 7 8 7 8 8 6 5 4 4 4 4 4 4 5 5
8 10 12 14 13 9 9 10 12 8 5 3 5 8 12 12 11 12 13 13 12 9 7 5 3 1 2 3 2 3 5 7 8 7 6 6 5 5 4 4 4 5 4 4
9 11 15 16 14 10 7 17 14 10 11 10 10 9 12 12 11 12 15 15 14 13 11 9 7 4 3 3 3 3 3 4 5 5 5 4 2 3 4 3 3 4 4 3
8 11 12 11 14 8 9 16 15 13 14 11 12 11 15 15 13 14 16 15 14 14 14 13 12 10 9 7 6 6 5 5 4 4 4 4 1 0 1 2 3 3 3 4
10 10 6 8 10 5 6 7 12 10 13 17 16 17 19 18 7 13 17 16 14 13 13 12 11 11 11 10 9 8 9 8 8 7 6 5 4 3 2 2 3 4 4 4
9 7 5 5 7 5 6 9 11 9 6 15 18 20 21 23 11 13 19 15 12 11 9 9 9 9 9 10 9 9 10 9 9 8 6 6 5 4 4 3 4 3 4 4
11 7 5 6 6 5 5 12 14 7 1 14 17 19 20 21 13 12 17 13 10 8 7 7 8 8 8 8 9 10 9 8 7 6 6 5 4 4 4 4 4 3 3 3
12 10 9 8 5 4 4 11 10 5 7 14 15 17 17 15 12 15 16 11 6 5 6 6 6 6 6 7 8 8 7 6 5 5 5 5 4 4 3 4 4 4 3 3
9 9 8 7 6 4 8 8 7 5 9 11 14 15 16 16 16 16 15 10 5 4 4 4 4 5 5 6 6 6 4 3 3 3 3 4 4 5 5 4 4 4 3 3
7 7 5 5 4 4 5 4 4 5 9 11 12 15 16 17 16 16 14 11 6 2 3 2 2 2 3 4 5 4 3 3 2 2 2 3 4 4 5 5 5 4 3 3
6 7 6 5 5 8 6 6 7 8 10 12 13 14 15 16 16 15 13 10 6 1 2 0 1 1 3 2 3 4 3 4 2 2 2 4 4 5 5 5 5 4 5 4
4 4 5 4 6 7 7 10 11 11 11 12 13 13 14 15 15 14 12 10 6 2 2 1 2 1 2 3 3 4 3 5 3 3 3 4 4 3 4 5 5 5 6 5
1 3 4 4 7 7 10 11 12 12 12 13 13 14 14 13 13 12 11 9 6 4 2 3 2 3 1 3 3 4 2 4 4 4 4 2 2 2 2 3 4 8 7 10
Wind_Direction
245 256 267 296 333 310 299 297 294 310 358 331 305 298 290 280 257 236 235 245 244 220 197 184 151 132 137 154 167 157 146 155 149 143 147 148 162 160 160 177 193 201 211 213
279 278 340 331 313 300 303 302 308 329 353 330 311 298 291 286 279 261 248 246 248 236 196 143 131 134 146 136 119 118 134 140 140 141 149 159 165 180 187 189 203 205 213 220
266 266 213 279 286 290 292 303 315 322 329 329 324 297 288 284 280 271 257 250 250 240 168 139 135 128 121 115 108 83 89 107 104 117 120 137 142 182 197 198 206 210 208 216
270 234 218 253 260 258 269 252 254 286 317 304 324 299 291 290 292 282 270 249 230 210 157 134 133 128 127 115 113 125 110 110 114 125 145 161 174 194 206 200 201 210 211 213
283 265 247 262 270 257 271 235 236 245 245 259 244 253 278 285 282 280 273 273 244 163 146 132 132 130 125 121 130 122 115 119 135 156 157 182 197 208 217 203 194 202 208 210
269 262 254 265 275 254 242 239 244 241 244 255 242 227 264 260 264 295 303 259 182 145 140 129 125 120 115 118 120 117 122 117 132 158 176 196 198 201 204 183 184 193 193 206
305 283 246 221 253 241 226 241 261 247 226 255 299 237 237 215 235 284 300 34 119 132 131 126 124 120 124 134 139 134 127 134 160 194 210 195 174 197 211 182 176 177 186 197
312 312 344 310 275 278 246 245 252 272 268 260 249 262 266 191 192 204 126 93 106 115 118 127 132 134 142 148 150 148 147 157 167 209 251 215 146 155 144 115 134 164 164 173
322 314 323 322 310 294 281 262 268 276 279 273 230 221 231 7 9 30 102 118 134 132 133 141 144 149 154 156 160 163 158 159 166 194 221 324 87 129 127 152 146 126 138 157
317 309 309 314 305 286 287 294 287 261 281 270 257 135 21 9 4 360 14 58 101 135 158 162 158 160 162 161 167 173 165 166 175 188 182 136 93 123 119 64 126 140 134 122
319 307 308 305 301 310 318 312 298 279 249 263 308 50 57 30 5 354 354 357 18 13 2 326 168 166 164 164 169 171 170 171 178 188 172 151 187 179 167 185 152 147 148 150
338 318 305 302 327 11 7 348 321 301 297 320 345 70 54 41 1 345 341 336 347 349 327 276 223 173 167 170 173 175 177 182 178 182 174 173 174 158 178 200 174 175 172 167
338 312 312 314 337 24 9 330 315 309 282 299 316 71 31 19 2 346 333 325 328 325 319 292 244 167 170 177 177 177 182 186 175 174 181 172 173 178 189 206 179 184 184 176
306 293 300 302 310 319 309 304 307 313 325 332 25 29 19 9 354 337 330 328 327 322 315 312 314 198 173 190 195 183 182 174 166 168 175 180 184 178 178 202 189 199 205 188
329 309 313 309 302 287 280 306 310 322 347 28 31 39 12 355 337 337 348 349 347 344 333 316 292 230 165 187 202 177 169 161 164 163 168 175 191 178 183 210 208 203 219 209
337 320 319 312 309 300 21 15 12 25 28 48 53 33 351 346 352 13 8 6 7 5 8 7 6 31 61 96 91 85 103 125 144 158 161 155 173 170 179 210 237 215 205 222
339 330 325 315 316 309 52 17 9 35 38 40 39 11 354 355 15 29 16 14 16 16 17 22 26 33 44 59 72 73 67 63 65 74 87 92 77 32 188 226 246 247 219 217
346 340 332 321 337 46 59 18 360 4 37 24 13 4 358 350 14 46 23 16 17 19 18 19 24 33 42 48 54 60 58 52 45 43 43 41 25 10 342 293 269 255 239 223
3 352 341 344 348 65 33 1 346 327 6 17 0 355 355 350 3 26 11 8 16 19 16 16 25 35 39 43 46 56 59 52 44 34 31 30 18 3 341 315 299 284 272 251
3 1 359 357 0 24 346 329 320 282 324 6 351 348 350 356 4 350 345 352 12 16 13 18 26 32 39 42 48 55 55 51 41 29 29 23 12 352 335 325 313 304 295 286
356 359 9 2 20 72 339 336 348 40 333 328 333 336 342 345 334 322 330 341 3 23 20 28 35 28 33 46 57 56 51 49 40 26 22 14 7 352 3 351 336 329 322 313
8 2 5 356 13 28 8 1 16 325 309 318 324 328 329 325 323 326 329 332 346 41 41 34 43 37 32 38 61 69 45 33 53 40 26 18 20 15 13 3 354 352 351 335
33 20 351 350 3 10 354 360 343 314 314 319 320 321 321 321 324 327 327 328 339 55 74 50 66 79 63 43 42 58 39 355 22 43 39 42 43 48 30 17 10 6 4 354
20 11 347 341 1 359 358 359 341 329 321 318 316 316 317 317 319 322 323 325 333 21 104 153 273 135 106 85 68 62 8 327 340 65 65 69 51 49 49 31 19 20 14 6
349 348 336 327 358 348 347 346 335 327 323 320 317 315 313 313 315 317 319 323 325 325 127 143 300 314 114 96 82 73 14 328 343 47 69 85 82 71 71 64 39 28 43 32
39 2 342 332 347 333 327 331 327 327 325 322 319 316 315 311 311 315 317 319 317 314 152 167 243 280 67 85 87 95 38 334 14 45 37 48 89 93 102 120 99 57 56 51